This is the latest recevied weather packets stored in our database for station/object K0QED. If no packets are shown the sender has not sent any weather packets the latest 10 day(s).
| Time | Temp. | Humidity | Pressure | Rain* | Wind** | Luminosity | Snow |
|---|---|---|---|---|---|---|---|
| 1787930216 | 22.78° C | 46% | 1029.7 hPa | 0 mm | - | 41 W/m² | - |
| 1787929915 | 22.78° C | 48% | 1029.7 hPa | 0 mm | - | 44 W/m² | - |
| 1787929614 | 22.22° C | 48% | 1029.6 hPa | 0 mm | - | 71 W/m² | - |
| 1787929309 | 21.11° C | 52% | 1030 hPa | 0 mm | - | 117 W/m² | - |
| 1787929007 | 21.11° C | 53% | 1030 hPa | 0 mm | - | 54 W/m² | - |
| 1787928702 | 20.56° C | 55% | 1030.1 hPa | 0 mm | - | 65 W/m² | - |
| 1787928400 | 20° C | 54% | 1030 hPa | 0 mm | - | 132 W/m² | - |
| 1787928099 | 20° C | 55% | 1030.1 hPa | 0 mm | - | 33 W/m² | - |
| 1787927799 | 19.44° C | 56% | 1030.1 hPa | 0 mm | - | 35 W/m² | - |
| 1787927494 | 18.89° C | 56% | 1030.5 hPa | 0 mm | - | 28 W/m² | - |
| 1787927189 | 18.33° C | 61% | 1030 hPa | 0 mm | - | 28 W/m² | - |
| 1787926890 | 17.22° C | 63% | 1030.1 hPa | 0 mm | - | 27 W/m² | - |
| 1787926584 | 17.22° C | 66% | 1030.4 hPa | 0 mm | - | 27 W/m² | - |
| 1787926283 | 16.67° C | 66% | 1030.1 hPa | 0 mm | - | 25 W/m² | - |
| 1787925978 | 16.67° C | 66% | 1030.2 hPa | 0 mm | - | 25 W/m² | - |
| 1787925672 | 16.11° C | 67% | 1030.1 hPa | 0 mm | - | 24 W/m² | - |
| 1787925362 | 15.56° C | 69% | 1029.9 hPa | 0 mm | - | 24 W/m² | - |
| 1787925061 | 15.56° C | 70% | 1030.2 hPa | 0 mm | - | 23 W/m² | - |
| 1787924761 | 15° C | 72% | 1030 hPa | 0 mm | - | 23 W/m² | - |
| 1787924461 | 15° C | 74% | 1030.2 hPa | 0 mm | - | 21 W/m² | - |
| 1787924156 | 15° C | 74% | 1030.1 hPa | 0 mm | - | 24 W/m² | - |
| 1787923856 | 14.44° C | 74% | 1030.2 hPa | 0 mm | - | 32 W/m² | - |
| 1787923550 | 13.89° C | 74% | 1030.2 hPa | 0 mm | - | 31 W/m² | - |
| 1787923246 | 13.89° C | 75% | 1030.2 hPa | 0 mm | - | 27 W/m² | - |
| 1787922942 | 13.33° C | 73% | 1029.7 hPa | 0 mm | - | 23 W/m² | - |
* Rain latest hour (hover to see other rain measurements)
** Current wind speed in m/s (hover to see current wind gust speed)